Flag for U.S.A. Weather past 2 weeks in Youngstown, Ohio, U.S.A.

Now
65 °F

Broken clouds.


Feels Like: 65 °F
Forecast: 57 / 75 °F
Wind: 9 mph from Northeast

Location: Youngstown-Warren Regional Airport

Current Time: Jul 24, 2014 at 9:56:07 AM

Latest Report: Jul 24, 2014 at 8:51 AM


Visibility: 10 mi

Pressure: 30.04 "Hg

Humidity: 73%

Dew point: 56 °F

Location of YoungstownLocation

Historic Weather in Youngstown — Graph

°F

Youngstown temperature yesterday

Maximum temperature yesterday: 79 °F (at 12:51 PM)
Minimum temperature yesterday: 63 °F (at 11:51 PM)
Average temperature yesterday: 71 °F

Past Weeks' High & Low Weather Summary

 TemperatureHumidityPressure
High84 °F (Jul 21, 5:51 PM)100% (Jul 10, 5:51 AM)30.26 "Hg (Jul 10, 5:51 AM)
Low47 °F (Jul 18, 4:51 AM)36% (Jul 18, 1:51 PM)29.72 "Hg (Jul 15, 3:51 AM)
Average69 °F75%30.03 "Hg
* Reported Jul 9 8:51 AM — Jul 24 7:51 AM, Youngstown, Weather by CustomWeather, © 2014

Note: Actual official high and low records may vary slightly from our data, if they occured in-between our weather recording intervals... More about our weather records

Advertising

Youngstown weather history for previous 24 hours

 ConditionsComfort  
Time TempWeatherWind HumidityBarometerVisibility
7:51 AM
Jul 24
62 °FPartly sunny.7 mph80%30.03 "Hg10 mi
6:51 AM59 °FPartly cloudy.7 mph87%30.02 "Hg10 mi
5:51 AM59 °FPassing clouds.6 mph87%30.02 "Hg10 mi
4:51 AM59 °FPassing clouds.6 mph87%30.01 "Hg10 mi
3:51 AM56 °FPassing clouds.No wind93%30.00 "Hg9 mi
2:51 AM57 °FPassing clouds.No wind93%30.00 "Hg10 mi
1:51 AM59 °FPassing clouds.3 mph93%30.01 "Hg10 mi
12:51 AM62 °FMostly cloudy.3 mph90%30.01 "Hg10 mi
11:51 PM
Jul 23
63 °FOvercast.5 mph90%30.01 "Hg10 mi
10:51 PM64 °FMostly cloudy.6 mph84%30.01 "Hg10 mi
9:51 PM64 °FMostly cloudy.12 mph84%30.01 "Hg10 mi
8:51 PM65 °FMostly cloudy.8 mph81%29.99 "Hg10 mi
7:51 PM65 °FMostly cloudy.12 mph81%29.99 "Hg10 mi
6:51 PM66 °FMostly cloudy.13 mph81%29.98 "Hg10 mi
5:51 PM66 °FMostly cloudy.15 mph87%29.97 "Hg10 mi
4:51 PM66 °FDrizzle. Mostly cloudy.8 mph90%29.98 "Hg10 mi
3:51 PM67 °FLight rain. Mostly cloudy.13 mph90%29.98 "Hg10 mi
2:51 PM68 °FLight rain. Fog.15 mph93%29.99 "Hg1 mi
1:51 PM75 °FCloudy.13 mph79%29.96 "Hg7 mi
12:51 PM79 °FCloudy.12 mph65%29.94 "Hg10 mi
11:51 AM77 °FMore clouds than sun.10 mph71%29.94 "Hg10 mi
10:51 AM77 °FCloudy.10 mph69%29.93 "Hg10 mi
9:51 AM76 °FMostly cloudy.8 mph77%29.94 "Hg6 mi
Weather by CustomWeather, © 2014

See weather overviewHow to use our weather pages